This is the latest recevied weather packets stored in our database for station/object N5SRF. If no packets are shown the sender has not sent any weather packets the latest 10 day(s).
| Time | Temp. | Humidity | Pressure | Rain* | Wind** | Luminosity | Snow |
|---|---|---|---|---|---|---|---|
| 1788018597 | 31.67° C | 73% | 1022.4 hPa | 0 mm | - | 569 W/m² | - |
| 1788018296 | 31.67° C | 76% | 1022.6 hPa | 0 mm | - | 555 W/m² | - |
| 1788017993 | 31.11° C | 77% | 1022.4 hPa | 0 mm | - | 545 W/m² | - |
| 1788017689 | 31.11° C | 77% | 1022.4 hPa | 0 mm | - | 529 W/m² | - |
| 1788017385 | 31.67° C | 75% | 1022.5 hPa | 0 mm | - | 515 W/m² | - |
| 1788017081 | 31.67° C | 74% | 1022.6 hPa | 0 mm | - | 501 W/m² | - |
| 1788016780 | 31.67° C | 73% | 1022.1 hPa | 0 mm | - | 486 W/m² | - |
| 1788016478 | 31.67° C | 73% | 1022.3 hPa | 0 mm | - | 471 W/m² | - |
| 1788016173 | 31.11° C | 75% | 1022.5 hPa | 0 mm | - | 454 W/m² | - |
| 1788015872 | 31.11° C | 76% | 1022.5 hPa | 0 mm | - | 442 W/m² | - |
| 1788015567 | 31.11° C | 76% | 1022.3 hPa | 0 mm | - | 430 W/m² | - |
| 1788015262 | 30.56° C | 77% | 1022.4 hPa | 0 mm | - | 411 W/m² | - |
| 1788014961 | 30.56° C | 77% | 1022.2 hPa | 0 mm | - | 394 W/m² | - |
| 1788014661 | 30.56° C | 78% | 1022.2 hPa | 0 mm | - | 383 W/m² | - |
| 1788014360 | 30.56° C | 78% | 1022.2 hPa | 0 mm | - | 367 W/m² | - |
| 1788014056 | 30.56° C | 78% | 1022.3 hPa | 0 mm | - | 350 W/m² | - |
| 1788013755 | 30° C | 79% | 1022.3 hPa | 0 mm | - | 333 W/m² | - |
| 1788013450 | 30.56° C | 78% | 1022.2 hPa | 0 mm | - | 317 W/m² | - |
| 1788013149 | 30° C | 76% | 1022.3 hPa | 0 mm | - | 301 W/m² | - |
| 1788012848 | 30° C | 77% | 1022.2 hPa | 0 mm | - | 285 W/m² | - |
| 1788012543 | 30° C | 77% | 1022.5 hPa | 0 mm | - | 268 W/m² | - |
| 1788012239 | 30° C | 78% | 1022.3 hPa | 0 mm | - | 73 W/m² | - |
| 1788011938 | 29.44° C | 79% | 1022.1 hPa | 0 mm | - | 146 W/m² | - |
| 1788011636 | 28.89° C | 79% | 1022.3 hPa | 0 mm | - | 223 W/m² | - |
| 1788011332 | 28.89° C | 79% | 1022.4 hPa | 0 mm | - | 206 W/m² | - |
* Rain latest hour (hover to see other rain measurements)
** Current wind speed in m/s (hover to see current wind gust speed)